Regional Weather Roundup
Issued by NWS

Home | Current Version | Previous Version | Graphics & Text | Print | Product List | Glossary On
Versions: 1 2 3 4 5 6 7 8 9 10 11 12 13 14 15 16 17 18 19 20 21 22 23 24 25 26 27 28 29 30 31 32 33 34 35 36 37 38 39 40 41 42 43 44 45 46 47 48 49 50
000
ASUS45 KTFX 292004
RWRMT
MONTANA REGIONAL WEATHER ROUNDUP
NATIONAL WEATHER SERVICE GREAT FALLS MT
200 PM MDT SAT AUG 29 2015

NOTE: "FAIR" INDICATES FEW OR NO CLOUDS BELOW 12000 FEET WITH NO
SIGNIFICANT WEATHER AND/OR OBSTRUCTIONS TO VISIBILITY.

MTZ001>007-043-292100-
WEST OF THE DIVIDE

CITY           SKY/WX    TMP DP  RH WIND       PRES   REMARKS
KALISPELL      CLOUDY    76  47  35 S7        29.72F SMOKE
MISSOULA       CLOUDY    75  46  35 CALM      29.79F HAZE
BUTTE          CLOUDY    84  38  19 S21G35    29.96F
MULLAN PASS    CLOUDY    66  37  34 SW13G24   29.97R HAZE
DEER LODGE       N/A     88  45  22 S13       29.90F
EUREKA           N/A     72  45  37 NE10      29.70F
HAMILTON         N/A     73  46  38 NE7       29.80F
LIBBY            N/A     70  45  40 CALM      29.74R
$$

MTZ008-052>055-292100-
SOUTHWEST MONTANA

CITY           SKY/WX    TMP DP  RH WIND       PRES   REMARKS
BOZEMAN        CLOUDY    87  48  25 VRB6      29.91F
DILLON         PTSUNNY   89  38  16 S26G38    29.92F
W YELLOWSTONE  CLOUDY    72  41  33 S15G22    30.21S
$$

MTZ009-010-012-014-046-048-049-054-292100-
EAST SLOPES AND CENTRAL MONTANA

CITY           SKY/WX    TMP DP  RH WIND       PRES   REMARKS
CUT BANK       CLOUDY    79  42  26 SW36G49   29.81F HAZE
GREAT FALLS    CLOUDY    86  40  19 W8        29.82F HAZE
MALMSTROM AFB  CLOUDY    86  42  21 W12G21    29.82S
HELENA         CLOUDY    79  47  32 N6        29.84F SMOKE
$$

MTZ011-013-016-021-045-047-050-051-292100-
NORTH CENTRAL MONTANA

CITY           SKY/WX    TMP DP  RH WIND       PRES   REMARKS
HAVRE          CLOUDY    94  43  17 S15       29.75F HAZE    HX  90
LEWISTOWN      CLOUDY    89  43  20 S7        29.90F
N BAR RANCH      N/A     84  39  20 S10       29.98F
CHINOOK          N/A     91  43  18 SE10G17   29.76F
FORT BENTON      N/A     93  41  16 S6        29.76F
$$

MTZ017>020-022>027-061-062-292100-
NORTHEAST MONTANA

CITY           SKY/WX    TMP DP  RH WIND       PRES   REMARKS
GLASGOW        HAZE      87  44  22 SE8       29.83F VSB 3/4
JORDAN           N/A     97  38  13 SE10      29.84F HX  92
SIDNEY         MOSUNNY   91  52  25 SE6       29.84F
WOLF POINT     CLOUDY    85  49  28 E3        29.84F HAZE
PLENTYWOOD       N/A     88  46  23 S3        29.85F
POPLAR           N/A     84  43  23 E3        29.85F VSB 3/4
$$

MTZ028>42-056>058-292100-
SOUTHCENTRAL AND SOUTHEAST MONTANA

CITY           SKY/WX    TMP DP  RH WIND       PRES   REMARKS
BAKER          SUNNY     97  45  16 VRB5      29.92F HX  93
BILLINGS       CLOUDY    87  41  19 CALM      29.93F
LIVINGSTON     PTSUNNY   87  40  19 E13       29.94F
MILES CITY     SUNNY     96  47  18 SE8       29.86F HAZE    HX  92
FORSYTH          N/A     97  43  15 CALM      29.86F HX  92
$$

REGIONAL REPORTS...DAKOTAS

CITY           SKY/WX    TMP DP  RH WIND       PRES   REMARKS
WILLISTON      MOSUNNY   89  49  25 S5        29.85F HAZE
MINOT          CLOUDY    90  52  27 S9        29.83F HAZE
DICKINSON      MOSUNNY   98  39  13 S18G24    29.88F HX  93
BISMARCK       PTSUNNY   91  60  35 S7        29.89F HAZE    HX  90
GRAND FORKS    PTSUNNY   79  68  69 S9        29.88F
FARGO          MOSUNNY   82  67  60 S14       29.92F
BUFFALO SD       N/A     95  49  20 S14       29.88F HX  92
RAPID CITY     SUNNY     93  51  23 S13       29.99F HX  90
$$

REGIONAL REPORTS...WYOMING/IDAHO/WASHINGTON

CITY           SKY/WX    TMP DP  RH WIND       PRES   REMARKS
GILLETTE       SUNNY     94  35  12 SW13G20   30.01F
SHERIDAN       MOSUNNY   97  34  11 E9G17     29.95F HX  91
BUFFALO WY     SUNNY     95  33  11 SE8G16    30.03F HX  90
CODY           PTSUNNY   90  37  15 E16G23    30.02F
YELLOWSTONE LA   N/A     66  37  34 VRB7G21   30.35R
IDAHO FALLS    CLOUDY    91  42  18 SW15      30.00F
SALMON         CLOUDY    88  50  27 S8        29.78F
BOISE          CLOUDY    89  40  17 SE12      29.85F
SPOKANE        DUST      70  42  36 W29G39    29.81R VSB 1
$$

REGIONAL REPORTS...ALBERTA

CITY           SKY/WX    TMP DP  RH WIND       PRES   REMARKS
$$

REGIONAL REPORTS...SASKATCHEWAN

CITY           SKY/WX    TMP DP  RH WIND       PRES   REMARKS
$$



USA.gov is the U.S. government's official web portal to all federal, state and local government web resources and services.